sat.trackr.live / text

‹ back to catalog

STARLINK-34862

NORAD 65180 · 2025-175G

PAYLOAD ACTIVE UNKNOWN

§ Identity

Operator
Country
US
Launch date
2025-08-14
Launch site
AFWTR
Launch vehicle
Mass (kg)
RCS (m²)

Purposes: comms

External: N2YO · Heavens-Above · Gunter

§ Orbital elements

Epoch: 2026-09-20T21:20:42.755136Z

Period
93.91 min
Inclination
97.2844°
Eccentricity
0.0001511
Mean motion
15.33439038 rev/d
Perigee alt
464.5 km
Apogee alt
466.6 km
Semi-major
6,843.7 km
B*
3.7077e-4
RAAN
132.8810°
Arg perigee
82.8903°
Mean anomaly
277.2512°
Rev number
6,219

§ Raw data

STARLINK-348621 65180U 25175G   26263.88938374  .00011912  00000+0  37077-3 0  99992 65180  97.2844 132.8810 0001511  82.8903 277.2512 15.33439038 62190

JSON: /api/v1/satellites/65180 · /tle

For live sub-satellite position, see the globe view (requires WebGL).

§ Visibility from observer

Set your observer location to see the next 7 days of passes ≥ 10°. The values pass through the URL so the page stays shareable.

No JS? Fill the form by hand. The geolocation button needs JavaScript.